Regional Weather Roundup
Issued by NWS Columbia, SC

Home | Current Version | Previous Version | Text Only | Print | Product List | Glossary On
Versions: 1 2 3 4 5 6 7 8 9 10 11 12 13 14 15 16 17 18 19 20 21 22 23 24 25 26 27 28 29 30 31 32 33 34 35 36 37 38 39 40 41 42 43 44 45 46 47 48 49 50
000
ASUS42 KCAE 281010
RWRCAE
REGIONAL WEATHER ROUNDUP
NATIONAL WEATHER SERVICE COLUMBIA SC
600 AM EDT MON JUL 28 2014

NOTE: "FAIR" INDICATES FEW OR NO CLOUDS BELOW 12,000 FEET WITH NO
SIGNIFICANT WEATHER AND/OR OBSTRUCTIONS TO VISIBILITY.

NOT ALL STATIONS ARE QUALITY CONTROLLED BY THE NATIONAL
WEATHER SERVICE. USE DATA WITH CAUTION...ESPECIALLY
DEWPOINT OBSERVATIONS.

SCZ001>056-GAZ040-063>065-077-281100-
...UPSTATE SOUTH CAROLINA...

CITY           SKY/WX    TMP DP  RH WIND       PRES   REMARKS
ANDERSON       CLOUDY    77  70  79 W8        29.86F
LIBERTY        FAIR      71  32  24 CALM      29.86S HAZE
SPARTANBURG    FAIR      73  70  88 SW7       29.84R
CLEMSON        MOCLDY    76  69  79 W7        29.87R
GREENVILLE     MOCLDY    72  68  87 W5        29.87R
GREENWOOD      CLOUDY    80  71  74 SW8       29.87F
GREER          MOCLDY    71  69  93 SW6       29.85R
ROCK HILL      MOCLDY    70  69  97 W3        29.84F
CHESTER        FAIR      73  73 100 SW5       29.85R
LAURENS        FAIR      77  68  73 CALM      29.86S


...CENTRAL SOUTH CAROLINA...

CITY           SKY/WX    TMP DP  RH WIND       PRES   REMARKS
COLUMBIA APT   CLOUDY    83  72  69 SW7       29.84S
COLUMBIA OWENS CLOUDY    82  72  71 W5        29.85S
DARLINGTON     CLOUDY    79  72  78 SW5       29.82F
FLORENCE       CLOUDY    82  72  71 W7        29.82S
MCENTIRE ANGB  CLOUDY    78  73  84 SW5       29.85S
ORANGEBURG     MOCLDY    79  72  79 SW7       29.86F
SUMTER SHAW    CLOUDY    80  74  80 SW9       29.82S
NEWBERRY       FAIR      79  73  83 S6        29.86F
AIKEN          FAIR      81  73  78 SW7       29.90F
BARNWELL       FAIR      81  73  78 SW7       29.88F
MANNING        FAIR      82  75  78 W5        29.85S
CAMDEN         FAIR      81  72  74 W6        29.84F
LANCASTER      FAIR      73  72  94 CALM      29.83F
WINNSBORO      FAIR      79  64  61 W3        29.85S


...EASTERN AND COASTAL SOUTH CAROLINA...

CITY           SKY/WX    TMP DP  RH WIND       PRES   REMARKS
MYRTLE BEACH   CLEAR     82  72  69 SW6       29.83S
N MYRTLE BCH   MOCLDY    82  72  71 W7        29.82S
CONWAY         FAIR      79  73  83 SW6       29.83S
MARION         FAIR      79  72  78 SW6       29.82S
HARTSVILLE     FAIR      79  61  53 CALM      29.84S
FLORENCE       CLOUDY    82  72  71 W7        29.82S
DARLINGTON     CLOUDY    79  72  78 SW5       29.82F
CHARLESTON APT MOCLDY    82  73  74 SW8       29.88F
MOUNT PLEASANT FAIR      82  75  78 SW8       29.88S
WALTERBORO     PTSUNNY   79  77  94 SW7       29.89F
BEAUFORT       MOCLDY    82  74  76 W9        29.90F


...EASTERN GEORGIA...

CITY           SKY/WX    TMP DP  RH WIND       PRES   REMARKS
AUGUSTA BUSH F CLOUDY    81  72  74 SW9       29.86F
AUGUSTA DANIEL CLOUDY    83  73  72 VRB7      29.88F
THOMSON        CLOUDY    81  78  90 SW6       29.93S
WASHINGTON     FAIR      81  79  94 W7        29.89S
CLAXTON        FAIR      81  79  94 W5        29.92F
SYLVANIA       PTSUNNY   79  76  91 W3        29.91F
STATESBORO     PTCLDY    79  75  87 SW5       29.91F
SAVANNAH       MOCLDY    81  74  79 SW7       29.92F


...SOUTHERN NORTH CAROLINA...

CITY           SKY/WX    TMP DP  RH WIND       PRES   REMARKS
CHARLOTTE      PTCLDY    69  66  90 CALM      29.82F
MONROE         CLOUDY    72  68  87 SW8       29.81S
WADESBORO      CLOUDY    73  69  88 CALM      29.81R
ROCKINGHAM       N/A     75  70  83 S5        29.80F
RUTHERFORDTON  CLEAR     69  65  89 SW3       29.85F
ASHEVILLE      CLEAR     64  62  93 NW5       29.93F

$$


USA.gov is the U.S. government's official web portal to all federal, state and local government web resources and services.